FW0523 Weather Reports


Display with metric or nautical units.
time (UTC)temp
F
wind
direction
speed
MPH
gust
MPH
rain 1hr
in
rain 24hr
in
rain mn
in
humidity
%
barometer
mb
20260904095504 66 360 2.0 9.0 0.00 0.00 0.00 44 1024.7
20260904093402 66 145 3.0 10.0 0.00 0.00 0.00 43 1024.7
20260904092403 66 152 0.0 10.0 0.00 0.00 0.00 42 1024.5
20260904091403 66 360 0.0 10.0 0.00 0.00 0.00 42 1024.5
20260904090402 66 333 4.0 14.0 0.00 0.00 0.00 41 1024.5
20260904084303 66 140 6.0 10.0 0.00 0.00 0.00 41 1024.5
20260904083303 65 360 1.0 10.0 0.00 0.00 0.00 41 1024.7
20260904082306 65 360 5.0 9.0 0.00 0.00 0.00 40 1024.7
20260904081304 65 164 3.0 9.0 0.00 0.00 0.00 40 1024.7
20260904080303 65 112 4.0 10.0 0.00 0.00 0.00 40 1024.7
20260904075306 65 137 4.0 10.0 0.00 0.00 0.00 39 1025.1
20260904074304 65 75 6.0 12.0 0.00 0.00 0.00 39 1024.9
20260904073303 65 188 4.0 12.0 0.00 0.00 0.00 39 1024.8
20260904065103 65 174 4.0 11.0 0.00 0.00 0.00 39 1024.7
20260904064105 65 360 6.0 10.0 0.00 0.00 0.00 39 1024.8
20260904063102 64 175 2.0 10.0 0.00 0.00 0.00 40 1024.7
20260904062103 64 178 5.0 9.0 0.00 0.00 0.00 40 1024.8
20260904061104 64 203 4.0 10.0 0.00 0.00 0.00 40 1024.7
20260904060105 64 360 2.0 8.0 0.00 0.00 0.00 41 1024.9
20260904054003 64 360 0.0 5.0 0.00 0.00 0.00 40 1025.1
20260904053003 64 360 0.0 7.0 0.00 0.00 0.00 40 1025.1
20260904052004 65 360 3.0 9.0 0.00 0.00 0.00 39 1025.1
20260904051002 65 56 1.0 7.0 0.00 0.00 0.00 38 1025.1
20260904044903 65 360 2.0 9.0 0.00 0.00 0.00 37 1025.1
20260904043904 66 133 3.0 9.0 0.00 0.00 0.00 37 1025.2
20260904041804 66 179 2.0 9.0 0.00 0.00 0.00 36 1025.3
20260904035704 67 202 3.0 7.0 0.00 0.00 0.00 34 1025.3
20260904034702 67 360 4.0 10.0 0.00 0.00 0.00 34 1025.2
20260904033703 68 188 4.0 10.0 0.00 0.00 0.00 33 1025.2
20260904032704 68 109 3.0 12.0 0.00 0.00 0.00 32 1025.2
20260904030604 68 360 4.0 10.0 0.00 0.00 0.00 31 1025.1
20260904025603 69 184 4.0 11.0 0.00 0.00 0.00 31 1025.1
20260904024603 69 360 3.0 12.0 0.00 0.00 0.00 30 1024.9
20260904023604 70 360 2.0 10.0 0.00 0.00 0.00 29 1024.7
20260904021503 71 360 2.0 8.0 0.00 0.00 0.00 28 1024.3
20260904020504 71 360 3.0 10.0 0.00 0.00 0.00 27 1024.1
20260904015504 71 85 4.0 10.0 0.00 0.00 0.00 26 1024.1
20260904014502 72 360 1.0 13.0 0.00 0.00 0.00 25 1024.1
20260904013503 72 360 5.0 9.0 0.00 0.00 0.00 25 1024.0
20260904012503 73 360 4.0 9.0 0.00 0.00 0.00 24 1023.7
20260904011503 73 121 5.0 10.0 0.00 0.00 0.00 23 1023.7
20260904010504 74 360 3.0 10.0 0.00 0.00 0.00 23 1023.6
20260904005504 75 195 1.0 10.0 0.00 0.00 0.00 22 1023.6
20260904004503 75 69 3.0 9.0 0.00 0.00 0.00 21 1023.5
20260904003503 76 61 2.0 9.0 0.00 0.00 0.00 20 1023.5
20260904002503 77 31 2.0 10.0 0.00 0.00 0.00 18 1023.5
20260904001503 79 54 1.0 10.0 0.00 0.00 0.00 17 1023.6
20260904000504 80 360 3.0 13.0 0.00 0.00 0.00 16 1023.6
20260903235504 80 360 6.0 10.0 0.00 0.00 0.00 16 1023.5
20260903234503 81 360 3.0 10.0 0.00 0.00 0.00 15 1023.5
20260903232404 81 75 5.0 9.0 0.00 0.00 0.00 14 1023.2
20260903231403 82 112 2.0 10.0 0.00 0.00 0.00 14 1023.2
20260903230403 81 165 0.0 9.0 0.00 0.00 0.00 14 1023.3
20260903225403 81 71 3.0 10.0 0.00 0.00 0.00 14 1023.5
20260903224403 82 360 6.0 10.0 0.00 0.00 0.00 14 1023.5
20260903223404 82 222 3.0 13.0 0.00 0.00 0.00 14 1023.6
20260903221303 81 11 4.0 8.0 0.00 0.00 0.00 15 1023.6
20260903220307 81 360 4.0 12.0 0.00 0.00 0.00 16 1023.7
20260903215306 81 126 4.0 11.0 0.00 0.00 0.00 16 1023.9
20260903213204 81 47 3.0 13.0 0.00 0.00 0.00 16 1024.0
20260903212204 80 151 5.0 10.0 0.00 0.00 0.00 17 1024.1
20260903211202 80 92 2.0 9.0 0.00 0.00 0.00 17 1024.1
20260903210202 80 168 3.0 10.0 0.00 0.00 0.00 18 1024.4
20260903205203 80 360 0.0 10.0 0.00 0.00 0.00 17 1024.4
20260903204203 80 360 0.0 10.0 0.00 0.00 0.00 18 1024.4
20260903203206 79 360 4.0 8.0 0.00 0.00 0.00 18 1024.5
20260903202204 79 360 0.0 10.0 0.00 0.00 0.00 19 1024.5
20260903200103 78 360 3.0 10.0 0.00 0.00 0.00 19 1024.9
20260903195104 77 360 5.0 14.0 0.00 0.00 0.00 19 1024.9
20260903194102 77 360 3.0 13.0 0.00 0.00 0.00 17 1025.1
20260903193103 78 360 4.0 10.0 0.00 0.00 0.00 17 1025.2
20260903192103 78 117 3.0 9.0 0.00 0.00 0.00 17 1025.2
20260903191103 78 14 3.0 9.0 0.00 0.00 0.00 16 1025.3
20260903185003 77 24 1.0 3.0 0.00 0.00 0.00 16 1025.5
20260903184003 77 34 5.0 8.0 0.00 0.00 0.00 16 1025.5
20260903183004 76 182 3.0 9.0 0.00 0.00 0.00 19 1025.7
20260903182004 76 27 2.0 9.0 0.00 0.00 0.00 19 1025.9
20260903181005 75 110 0.0 9.0 0.00 0.00 0.00 20 1026.1
20260903180003 75 158 3.0 4.0 0.00 0.00 0.00 20 1026.4
20260903175003 74 88 0.0 8.0 0.00 0.00 0.00 19 1026.7
20260903174003 74 4 2.0 8.0 0.00 0.00 0.00 19 1026.7
20260903165704 73 18 1.0 10.0 0.00 0.00 0.00 24 1026.8
20260903164704 72 360 1.0 8.0 0.00 0.00 0.00 27 1026.7
20260903163702 71 155 3.0 7.0 0.00 0.00 0.00 28 1026.8
20260903162702 70 44 11.0 11.0 0.00 0.00 0.00 26 1026.7
20260903161703 70 20 5.0 8.0 0.00 0.00 0.00 28 1026.7
20260903160703 69 172 0.0 6.0 0.00 0.00 0.00 32 1026.7
20260903154604 67 92 5.0 10.0 0.00 0.00 0.00 33 1026.7
20260903152504 66 308 0.0 7.0 0.00 0.00 0.00 38 1026.8
20260903151502 65 151 4.0 10.0 0.00 0.00 0.00 39 1026.8
20260903150503 64 35 1.0 6.0 0.00 0.00 0.00 40 1026.8
20260903145504 63 311 0.0 10.0 0.00 0.00 0.00 44 1026.9
20260903144502 60 172 0.0 9.0 0.00 0.00 0.00 49 1026.9
20260903143505 58 240 3.0 10.0 0.00 0.00 0.00 53 1026.9
20260903142504 57 360 2.0 2.0 0.00 0.00 0.00 56 1026.8
20260903141504 57 342 1.0 2.0 0.00 0.00 0.00 59 1026.9
20260903140503 57 332 0.0 5.0 0.00 0.00 0.00 59 1026.9
20260903135506 57 92 0.0 3.0 0.00 0.00 0.00 58 1026.8
20260903134504 58 336 1.0 9.0 0.00 0.00 0.00 55 1026.5
20260903133503 58 360 1.0 9.0 0.00 0.00 0.00 54 1026.5
20260903132503 57 141 2.0 9.0 0.00 0.00 0.00 56 1026.4
20260903131504 57 360 3.0 9.0 0.00 0.00 0.00 57 1026.3
20260903130503 56 360 1.0 6.0 0.00 0.00 0.00 60 1026.1
20260903125503 56 360 1.0 5.0 0.00 0.00 0.00 62 1026.1
20260903124504 56 360 1.0 3.0 0.00 0.00 0.00 61 1026.0
20260903122404 58 32 3.0 9.0 0.00 0.00 0.00 58 1025.9
20260903121403 57 360 1.0 8.0 0.00 0.00 0.00 58 1025.7
20260903120403 57 360 2.0 10.0 0.00 0.00 0.00 58 1025.6
20260903115404 57 349 1.0 5.0 0.00 0.00 0.00 60 1025.6
20260903114402 57 330 0.0 2.0 0.00 0.00 0.00 59 1025.6
20260903113403 58 195 1.0 1.0 0.00 0.00 0.00 59 1025.7
20260903112404 58 360 0.0 1.0 0.00 0.00 0.00 58 1025.6
20260903111402 59 360 0.0 0.0 0.00 0.00 0.00 56 1025.6
20260903110403 60 360 0.0 0.0 0.00 0.00 0.00 55 1025.6
20260903105403 61 360 0.0 0.0 0.00 0.00 0.00 52 1025.6
20260903104404 61 360 0.0 8.0 0.00 0.00 0.00 51 1025.6
20260903103402 62 360 1.0 10.0 0.00 0.00 0.00 51 1025.6
20260903102403 62 210 1.0 9.0 0.00 0.00 0.00 51 1025.7
20260903101404 62 360 0.0 3.0 0.00 0.00 0.00 50 1025.7